Regional Weather Roundup
Issued by NWS

Home | Current Version | Previous Version | Graphics & Text | Print | Product List | Glossary On
Versions: 1 2 3 4 5 6 7 8 9 10 11 12 13 14 15 16 17 18 19 20 21 22 23 24 25 26 27 28 29 30 31 32 33 34 35 36 37 38 39 40 41 42 43 44 45 46 47 48 49 50
949
ASUS43 KDTX 140610
RWRMI
MICHIGAN HOURLY REGIONAL WEATHER ROUNDUP
NATIONAL WEATHER SERVICE DETROIT/PONTIAC MI
100 AM EST SUN FEB 14 2016

NOTE: "FAIR" INDICATES FEW OR NO CLOUDS BELOW 12,000 FEET WITH NO
SIGNIFICANT WEATHER AND/OR OBSTRUCTION TO VISIBILITY.

MIZ047>049-052>055-059>063-066>070-074>076-081>083-140700-
SOUTHEAST LOWER MICHIGAN

CITY           SKY/WX    TMP DP  RH WIND       PRES   REMARKS
ADRIAN         CLEAR      7   3  84 CALM      30.46F
6HR MIN TEMP:   7; 6HR MAX TEMP:  14; 6HR PCP: TRACE;

ALMA           PTCLDY     7   2  80 CALM      30.46S
ANN ARBOR      CLOUDY    -4  -7  87 CALM      30.46S
BAD AXE        CLOUDY    -9 -14  80 CALM      30.44F
CARO           CLOUDY     0  -6  78 CALM      30.45S
DETROIT CITY   CLEAR      3  -3  76 CALM      30.47S
6HR MIN TEMP:   3; 6HR MAX TEMP:  11;

DETROIT        PTCLDY     5   0  79 CALM      30.48S
6HR MIN TEMP:   4; 6HR MAX TEMP:  11;

FLINT          CLOUDY    -3  -9  75 CALM      30.45F
6HR MIN TEMP:  -7; 6HR MAX TEMP:   9;

GROSSE ILE     CLEAR      3   1  92 CALM      30.46F
HILLSDALE      CLOUDY     9   0  65 CALM      30.42S
6HR MIN TEMP:   9; 6HR MAX TEMP:  12;

HOWELL         CLOUDY     0  -4  86 CALM      30.44S

CITY           SKY/WX    TMP DP  RH WIND       PRES   REMARKS
JACKSON        CLOUDY     4  -3  73 CALM      30.44F
6HR MIN TEMP:   4; 6HR MAX TEMP:  13; 6HR PCP: TRACE;

LAMBERTVILLE   CLEAR      8   2  76 CALM      30.48S
6HR MIN TEMP:   8; 6HR MAX TEMP:  15;

LANSING        CLEAR      5   0  79 W3        30.46F
6HR MIN TEMP:   5; 6HR MAX TEMP:  11;

LAPEER         CLOUDY    -3  -6  86 CALM      30.44F
6HR MIN TEMP:  -8; 6HR MAX TEMP:   4;

MASON          CLOUDY     2  -3  83 CALM      30.45S
MONROE         CLEAR      6   2  86 CALM      30.47S
6HR MIN TEMP:   5; 6HR MAX TEMP:  15;

MT. CLEMENS    CLEAR      0  -4  81 W3        30.45S
6HR MIN TEMP:   0; 6HR MAX TEMP:   8;

PONTIAC        CLOUDY    -2  -6  83 CALM      30.42F
6HR MIN TEMP:  -2; 6HR MAX TEMP:   9;

PORT HOPE        N/A     12   1  61 W7        30.42S WCI   1
6HR MIN TEMP:  10; 6HR MAX TEMP:  12;

PORT HURON     CLOUDY    -8 -13  77 CALM      30.47S
TRI CITIES     CLOUDY     8   1  73 W5        30.46F WCI   0
6HR MIN TEMP:   6; 6HR MAX TEMP:  10;

MIDLAND        CLOUDY     6   1  78 CALM      30.45F
6HR MIN TEMP:   1; 6HR MAX TEMP:   7;

TROY           CLEAR      8   2  75 CALM      30.48S
SAGINAW HB     CLOUDY     7   3  85 SW6       30.46F WCI  -3
$$
MIZ043>046-050>051-056>058-064>065-071>073-077>080-140700-
SOUTHWEST LOWER MICHIGAN

CITY           SKY/WX    TMP DP  RH WIND       PRES   REMARKS
BATTLE CREEK   CLOUDY     9  -2  61 CALM      30.46R
6HR MIN TEMP:   9; 6HR MAX TEMP:  13; 6HR PCP: TRACE;

BENTON HARBOR  CLOUDY    14   4  64 S7        30.47S WCI   4
6HR MIN TEMP:  14; 6HR MAX TEMP:  17;

BIG RAPIDS     CLOUDY     1  -2  88 CALM      30.42S
6HR MIN TEMP:   1; 6HR MAX TEMP:  10;

COLDWATER      CLOUDY    11   7  81 CALM      30.45S
6HR MIN TEMP:  10; 6HR MAX TEMP:  13;

FREMONT        CLOUDY    10   3  72 CALM      30.45S
HOLLAND        CLOUDY    12   4  70 SE5       30.48S WCI   4
6HR MIN TEMP:  12; 6HR MAX TEMP:  14; 6HR PCP: TRACE;

GRAND RAPIDS   CLEAR      7   0  73 CALM      30.46F
6HR MIN TEMP:   7; 6HR MAX TEMP:  13; 6HR PCP: TRACE;

IONIA          FAIR       5  -2  72 W6        30.45F WCI  -6
6HR MIN TEMP:   5; 6HR MAX TEMP:  13;

KALAMAZOO      CLOUDY    12   3  67 CALM      30.46S
6HR MIN TEMP:  12; 6HR MAX TEMP:  13; 6HR PCP: TRACE;

LUDINGTON      CLOUDY    13   5  71 SE3       30.45S
6HR MIN TEMP:  11; 6HR MAX TEMP:  13;

MARSHALL       CLEAR      7  -2  69 CALM      30.45S
6HR MIN TEMP:   7; 6HR MAX TEMP:  12;

MOUNT PLEASANT CLOUDY    10   2  71 W5        30.43F WCI   1
MUSKEGON       CLOUDY    13   3  64 E3        30.47F
6HR MIN TEMP:  13; 6HR MAX TEMP:  14; 6HR PCP: TRACE;

SOUTH HAVEN    LGT SNOW  12   8  81 SE3       30.47F
$$
MIZ016>042-140700-
NORTHERN LOWER MICHIGAN

CITY           SKY/WX    TMP DP  RH WIND       PRES   REMARKS
ALPENA         FLURRIES   2  -5  72 CALM      30.42S
6HR MIN TEMP:  -3; 6HR MAX TEMP:   2; 6HR PCP: TRACE;

BEAVER ISLAND  CLOUDY    13   4  66 W6        30.41S WCI   4
6HR MIN TEMP:  12; 6HR MAX TEMP:  13;

BELLAIRE       FLURRIES  10   7  88 CALM      30.43S
6HR MIN TEMP:   8; 6HR MAX TEMP:  10;

CADILLAC       CLOUDY     3  -2  81 SW3       30.36S
CHARLEVOIX     CLOUDY    15   4  63 N6        30.44R WCI   6
FRANKFORT      CLOUDY    13   4  67 SE3       30.43S
GAYLORD        LGT SNOW   4  -2  76 CALM      30.35S
6HR MIN TEMP:  -5; 6HR MAX TEMP:   4; 6HR PCP: TRACE;

GRAYLING       CLOUDY     2  -3  80 CALM      30.38F
HARBOR SPRINGS CLEAR     -1  -4  87 NE3       30.40F
HOUGHTON LAKE  CLOUDY     7   3  84 CALM      30.39S
6HR MIN TEMP:   7; 6HR MAX TEMP:   9; 6HR PCP: TRACE;

MANISTEE       CLOUDY    10   3  72 CALM      30.44S
OSCODA         CLEAR     -9 -15  76 SW3       30.44S
6HR MIN TEMP: -11; 6HR MAX TEMP:   5;

PELLSTON       CLOUDY    -8 -13  78 CALM      30.42R
6HR MIN TEMP: -10; 6HR MAX TEMP:   0; 6HR PCP: TRACE;

ROGERS CITY    LGT SNOW   6   1  79 W3        30.43R
TRAVERSE CITY  CLOUDY    12   3  67 SW6       30.42S WCI   3
6HR MIN TEMP:  12; 6HR MAX TEMP:  14; 6HR PCP: TRACE;

$$
MIZ007>008-015-140700-
EASTERN UPPER MICHIGAN

CITY           SKY/WX    TMP DP  RH WIND       PRES   REMARKS
KINROSS        CLOUDY    -8  -9  92 E6        30.42R WCI -21
6HR MIN TEMP:  -8; 6HR MAX TEMP:   3;

MACKINAC ISLAN CLOUDY     5   0  80 E5        30.41S WCI  -4
6HR MIN TEMP:   3; 6HR MAX TEMP:   9;

NEWBERRY       LGT SNOW   3   1  90 CALM      30.38R
6HR MIN TEMP:   2; 6HR MAX TEMP:   7;

S. S. MARIE    CLOUDY    -4 -11  72 E3        30.43S
6HR MIN TEMP:  -4; 6HR MAX TEMP:   2;

MUNISING         N/A      3  -3  76 SE6       30.41S WCI  -8
6HR MIN TEMP:   3; 6HR MAX TEMP:  10; 6HR PCP:  0.04;

$$
MIZ004>006-011>014-085-140700-
CENTRAL UPPER MICHIGAN

CITY           SKY/WX    TMP DP  RH WIND       PRES   REMARKS
MANISTIQUE     CLEAR      0  -6  76 W5        30.41S WCI -10
6HR MIN TEMP:  -2; 6HR MAX TEMP:   8;

ESCANABA       CLOUDY    -8 -18  59 NW3       30.43S
6HR MIN TEMP:  -9; 6HR MAX TEMP:   7;

MENOMINEE      CLOUDY    -6  -9  84 CALM      30.42S
6HR MIN TEMP:  -6; 6HR MAX TEMP:   9;

SAWYER-GWINN   CLOUDY   -10 -14  85 CALM      30.35S
6HR MIN TEMP: -12; 6HR MAX TEMP:   1;

$$
MIZ001>003-009>011-084-140700-
WESTERN UPPER MICHIGAN

CITY           SKY/WX    TMP DP  RH WIND       PRES   REMARKS
IRON MOUNTAIN  CLOUDY   -12 -17  78 CALM      30.37R
6HR MIN TEMP: -13; 6HR MAX TEMP:   5;

HOUGHTON       FLURRIES   1  -3  83 SW7       30.34S WCI -12
6HR MIN TEMP:  -7; 6HR MAX TEMP:   4; 6HR PCP: TRACE;

COPPER HARBOR    N/A      7   3  84 SW7       30.38F WCI  -5
6HR MIN TEMP:   7; 6HR MAX TEMP:  11;

IRONWOOD       CLOUDY   -20 N/A N/A CALM      30.29F
6HR MIN TEMP: -20; 6HR MAX TEMP:   0;

$$

ABBREVIATIONS USED IN REMARKS
   TC - TEMPERATURE IN CELSIUS
  WCI - WIND CHILL INDEX
   HX - HEAT INDEX
  VSB - VISIBILITY





USA.gov is the U.S. government's official web portal to all federal, state and local government web resources and services.